STARLINK-34387, 64315

Orbit data source: Space-Track

STARLINK-34387, 64315 is a payload satellite owned by SpaceX/Seattle (US) in LEO that was launched on Sun, 08 Jun 2025 UTC via an FALCON 9 launch vehicle from the Air Force Western Test Range (AFWTR). Payload-class satellites include a variety of spacecraft equipped with specific instruments for various scientific and technological missions. These include communications satellites like Starlink; space stations such as the ISS; scientific satellites like the Hubble; Earth observation satellites from companies like Planet Labs, Umbra, and HawkEye 360; GPS; miniature CubeSats for education and research; and military/defense satellites.

Loading next visibility...
Identifier
64315, 2025-123AA
Orbit
LEO
Country
Flag of USUS
Related business
Manufacturer
SpaceX/Seattle
Mission
Operational Commercial Communications
Bus & Motor
STARLINK V2MO, Unknown motor
Mass
575 kg wet, ~530 kg dry
Launch date (UTC)
2025-06-08 (10 months ago)
Launch vehicle
FALCON 9
Launch site
Air Force Western Test Range (AFWTR)
Object type
Payload
Rocket body
Debris
Shape & HBR
Box + 2 Pan, 17.7 m
Radar Cross Section
36.964 m², Large (>1 m²)

Expand to show TLE details & history
Last TLE update: 15 hours ago

TLE from 15 hours ago
0 STARLINK-34387
1 64315U 25123AA  26093.54332241  .00004687  00000-0  40020-3 0  9990
2 64315  70.0006 131.7024 0004062 268.9557  91.1136 14.98344342 45345
Epoch: 2026-04-03T13:02Z
TLE epoch observation values (Epoch: 2026-04-03T13:02:23.056Z)
Latitude
-0.00008°
Longitude
104.23037°
Altitude
574.491 km
Speed
7.574 km/s
True Right ascension
08h 46m 48s
True Declination
0° 00' 00"
Sunlit
Object was in full shadow at epoch
Visualization orbit readout
Latitude
Unknown
Longitude
Unknown
Altitude
Unknown
Speed
Unknown
Apparent Right ascension
Unknown
Apparent Declination
Unknown
Sunlit
N/A
Visualization observer readout
Local Sidereal Time
09:41:39
Azimuth
Unknown
Elevation
Unknown
Doppler factor
Unknown
Orbital elements
Apogee altitude
572.782 km
Perigee altitude
567.137 km
Semi-major axis
6,948.097 km
Eccentricity
0.00041
Inclination
70.0006°
RAAN
131.7024°
Arg. of periapsis
268.9557°
True anomaly
91.16014°
Mean anomaly
91.1136°
Eccentric anomaly
91.13687°
Mean motion
3.74752 °/min
Orbital period
96.06 mins
BSTAR
0.0004002
Loading maneuver chart data...
Computing Atmospheric mass density...
Loading historical data...
Loading historical data...
Loading historical data...
Loading historical data...
Loading historical data...
Loading historical data...
Loading historical data...

Documentation

Showing up to 5 results
|